Weather History for West Plains, MO

Change the Weather History Date:

Wednesday, November 7, 2012

  Actual Average Record
Temperature  
Mean Temperature 43 °F 50 °F  
Max Temperature 54 °F 61 °F 82 °F (1980)
Min Temperature 31 °F 40 °F 13 °F (1959)
Degree Days  
Heating Degree Days 22 15  
Month to date heating degree days 115 96  
Since 1 July heating degree days 483 399  
Cooling Degree Days 0 0  
Month to date cooling degree days 0 0  
Year to date cooling degree days 1739 1352  
Moisture  
Dew Point 31 °F    
Average Humidity 64    
Maximum Humidity 85    
Minimum Humidity 43    
Precipitation  
Precipitation 0.00 in 0.13 in 2.52 in (1996)
Month to date precipitation 0.31 0.97  
Year to date precipitation 28.57 38.97  
Sea Level Pressure  
Sea Level Pressure 30.10 in    
Wind  
Wind Speed 6 mph (NW)    
Max Wind Speed 16 mph    
Max Gust Speed 25 mph    
Visibility 10 miles    
Events      
T = Trace of Precipitation, MM = Missing Value Source: NWS Daily Summary

Daily Weather History Graph

Daily Weather History Graph

Search for Another Location

Airport:

Trip Planner

Search our weather history database for the weather conditions in past years. The results will help you decide how hot, cold, wet, or windy it might be!

Date:

Astronomy

Nov. 07, 2012 Rise Set
Actual Time 6:38 AM CST 5:04 PM CST
Civil Twilight 6:10 AM CST 5:31 PM CST
Nautical Twilight 5:40 AM CST 6:02 PM CST
Astronomical Twilight 5:09 AM CST 6:32 PM CST
Moon No Moon Rise 1:04 PM CST (11/7)
Length of Visible Light 11h 20m
Length of Day
10h 25m
Last Quarter, 43% of the Moon is Illuminated
Nov 7
Last Quarter
Nov 13
New
Nov 20
First Quarter
Nov 28
Full
Dec 6
Last Quarter

Hourly Weather History & Observations

Time (CST) Temp. Windchill Dew Point Humidity Pressure Visibility Wind Dir Wind Speed Gust Speed Precip Events Conditions
12:53 AM 43.0 °F 38.2 °F 32.0 °F 65% 30.01 in 10.0 mi WNW 8.1 mph - N/A   Clear
1:53 AM 43.0 °F 38.8 °F 32.0 °F 65% 30.01 in 10.0 mi WNW 6.9 mph - N/A   Clear
2:53 AM 42.1 °F 37.1 °F 30.9 °F 65% 30.01 in 10.0 mi WNW 8.1 mph - N/A   Clear
3:53 AM 39.9 °F 35.1 °F 30.9 °F 70% 30.02 in 10.0 mi West 6.9 mph - N/A   Clear
4:53 AM 39.0 °F 34.8 °F 30.9 °F 73% 30.03 in 10.0 mi WNW 5.8 mph - N/A   Clear
5:53 AM 39.9 °F 34.5 °F 30.9 °F 70% 30.03 in 10.0 mi NW 8.1 mph - N/A   Clear
6:53 AM 39.0 °F 34.8 °F 30.9 °F 73% 30.06 in 10.0 mi WNW 5.8 mph - N/A   Clear
7:53 AM 42.1 °F 38.4 °F 32.0 °F 67% 30.08 in 10.0 mi WNW 5.8 mph - N/A   Mostly Cloudy
8:53 AM 44.1 °F 38.6 °F 32.0 °F 63% 30.09 in 10.0 mi WNW 10.4 mph - N/A   Mostly Cloudy
9:53 AM 46.9 °F - 34.0 °F 61% 30.09 in 10.0 mi WNW 6.9 mph - N/A   Mostly Cloudy
10:53 AM 48.0 °F - 34.0 °F 58% 30.10 in 10.0 mi NNW 12.7 mph 16.1 mph N/A   Overcast
11:53 AM 51.1 °F - 33.1 °F 50% 30.10 in 10.0 mi NNW 15.0 mph 20.7 mph N/A   Overcast
12:53 PM 51.1 °F - 32.0 °F 48% 30.10 in 10.0 mi NW 10.4 mph 21.9 mph N/A   Scattered Clouds
1:53 PM 54.0 °F - 33.1 °F 45% 30.09 in 10.0 mi NNW 11.5 mph 16.1 mph N/A   Mostly Cloudy
2:53 PM 54.0 °F - 32.0 °F 43% 30.10 in 10.0 mi North 9.2 mph - N/A   Clear
3:53 PM 52.0 °F - 30.9 °F 45% 30.12 in 10.0 mi North 6.9 mph - N/A   Clear
4:53 PM 48.0 °F - 30.9 °F 52% 30.12 in 10.0 mi North 3.5 mph - N/A   Clear
5:53 PM 44.1 °F - 30.9 °F 60% 30.14 in 10.0 mi Calm Calm - N/A   Clear
6:53 PM 41.0 °F 39.0 °F 30.9 °F 67% 30.17 in 10.0 mi NE 3.5 mph - N/A   Clear
7:53 PM 37.0 °F - 30.0 °F 76% 30.17 in 10.0 mi Calm Calm - N/A   Clear
8:53 PM 36.0 °F - 28.9 °F 76% 30.19 in 10.0 mi Calm Calm - N/A   Clear
9:53 PM 35.1 °F - 28.9 °F 78% 30.18 in 10.0 mi Calm Calm - N/A   Clear
10:53 PM 35.1 °F - 28.9 °F 78% 30.18 in 10.0 mi Calm Calm - N/A   Clear
11:53 PM 32.0 °F - 28.0 °F 85% 30.18 in 10.0 mi Calm Calm - N/A   Clear